[[{"header":{"parameterUnit":"m.s-1","parameterCategory":1,"la1":30.2991,"la2":30.254,"lo1":-89.0895,"lo2":-89.0444,"dy":0.0017,"dx":0.0017,"nx":28,"ny":28,"refTime":"2023-10-18T09:00:00:Z","depth":0,"parameterNumber":2,"parameterNumberName":"U-component_of_WINDS"},"data":[0,0,0,0,0,0,0,0,0,0,0,0,0,0,0,0,0,0,0,0,0,0,0,0,0,0,0,0,0,0,0,0,0,0,0,0,0,0,0,0,0,0,0,0,0,0,0,0,0,0,0,0,0,0,0,0,0,0,-0.3411,-0.3411,0,-0.3383,-0.3383,-0.3382,-0.3363,-0.3362,-0.3362,-0.3362,-0.3335,-0.3334,-0.3333,0,0,0,0,0,0,0,0,0,0,0,0,0,-0.3448,-0.3448,-0.3411,-0.3411,-0.341,-0.3383,-0.3383,-0.3382,-0.3363,-0.3362,-0.3362,-0.3362,-0.3335,-0.3334,-0.3333,0,0,0,0,0,0,0,0,0,0,0,0,0,-0.3427,-0.3448,-0.3411,-0.3397,-0.3396,-0.3383,-0.3383,-0.3382,-0.3363,-0.3362,-0.3362,-0.3362,-0.3335,-0.3334,-0.3333,-0.3333,0,0,-0.3331,-0.333,0,0,0,0,0,0,0,0,-0.3429,-0.3426,-0.34,-0.3398,-0.3396,-0.3376,-0.3386,-0.3366,-0.3363,-0.3375,-0.3362,-0.3362,-0.3349,-0.3347,-0.3342,-0.3331,-0.333,-0.3331,-0.333,-0.333,-0.3329,0,0,0,0,0,0,0,-0.343,-0.3427,-0.34,-0.3399,-0.3397,-0.3393,-0.3389,-0.3382,-0.3364,-0.3374,-0.3373,-0.3369,-0.3348,-0.3343,-0.3341,-0.333,-0.3331,-0.333,-0.3329,-0.3329,-0.3317,-0.3317,0,0,0,0,0,0,-0.3434,-0.3429,-0.3401,-0.3399,-0.3412,-0.3392,-0.3389,-0.3383,-0.3364,-0.3361,-0.337,-0.3369,-0.3344,-0.3342,-0.334,-0.3338,-0.333,-0.3329,-0.3328,-0.3316,-0.3317,-0.3317,0,0,0,0,0,0,-0.3435,-0.3431,-0.3402,-0.3413,-0.3409,-0.3392,-0.3386,-0.3382,-0.3377,-0.336,-0.3357,-0.3368,-0.3344,-0.3341,-0.3334,-0.3336,-0.3328,-0.3328,-0.3316,-0.3316,-0.3317,-0.3333,0,0,0,0,0,0,-0.3436,-0.3432,-0.3431,-0.3414,-0.3409,-0.3397,-0.3386,-0.3382,-0.3376,-0.3374,-0.3358,-0.3355,-0.3344,-0.3336,-0.3334,-0.3335,-0.3327,-0.3316,-0.3316,-0.3317,-0.3332,-0.3334,-0.3335,0,0,0,0,0,-0.3437,-0.3437,-0.3431,-0.3428,-0.3408,-0.3397,-0.3394,-0.3381,-0.3376,-0.3375,-0.3364,-0.3355,-0.3337,-0.3335,-0.3333,-0.3334,-0.3316,-0.3316,-0.3317,-0.3332,-0.3334,-0.3335,0,0,0,0,0,0,-0.3457,-0.3435,-0.3428,-0.3422,-0.3412,-0.3394,-0.3392,-0.3384,-0.3374,-0.3373,-0.3357,-0.3354,-0.3349,-0.334,-0.3339,-0.3332,-0.3325,-0.3325,-0.3337,-0.3339,-0.3341,-0.3343,-0.3326,0,0,0,0,0,-0.346,-0.3453,-0.3434,-0.3431,-0.3426,-0.341,-0.3405,-0.3396,-0.3384,-0.3379,-0.3368,-0.3357,-0.3349,-0.3343,-0.3335,-0.3331,-0.3327,-0.3331,-0.3332,-0.3333,-0.3334,-0.3331,-0.3332,-0.3318,-0.3318,-0.3318,0,0,-0.3468,-0.3455,-0.3451,-0.3435,-0.3425,-0.3418,-0.3407,-0.34,-0.3394,-0.3378,-0.3371,-0.3362,-0.3349,-0.3344,-0.3341,-0.3337,-0.3336,-0.3334,-0.3335,-0.3335,-0.3331,-0.3333,-0.3334,-0.3319,-0.3319,-0.3319,0,0,-0.3478,-0.3467,-0.3463,-0.3454,-0.3439,-0.3428,-0.3428,-0.3411,-0.3404,-0.3396,-0.3384,-0.3377,-0.3363,-0.3354,-0.3348,-0.3353,-0.3345,-0.3351,-0.3359,-0.3356,-0.3358,-0.3358,-0.336,-0.3361,-0.3351,-0.3351,-0.3351,0,-0.3489,-0.3477,-0.3463,-0.3456,-0.3449,-0.3434,-0.343,-0.3421,-0.3405,-0.3401,-0.3396,-0.3378,-0.3368,-0.336,-0.3361,-0.3357,-0.3355,-0.3353,-0.3359,-0.3359,-0.336,-0.3362,-0.3362,-0.3352,-0.3352,-0.3352,-0.3352,0,-0.3492,-0.3484,-0.3483,-0.3467,-0.3459,-0.3454,-0.3439,-0.3433,-0.3425,-0.3414,-0.3406,-0.3394,-0.3382,-0.3379,-0.3371,-0.337,-0.3368,-0.3361,-0.3354,-0.3362,-0.3364,-0.3364,-0.3353,-0.3353,-0.3353,-0.3353,0,0,-0.3514,-0.3489,-0.3489,-0.3481,-0.3463,-0.3457,-0.3451,-0.3439,-0.3435,-0.3424,-0.3419,-0.3407,-0.34,-0.3393,-0.3383,-0.3381,-0.3386,-0.3374,-0.3373,-0.3377,-0.3384,-0.3389,-0.339,-0.338,-0.338,-0.338,-0.3385,0,-0.3521,-0.3509,-0.3496,-0.3489,-0.3481,-0.3466,-0.3461,-0.3449,-0.344,-0.3432,-0.3421,-0.3413,-0.3405,-0.34,-0.3397,-0.3386,-0.3387,-0.3385,-0.3375,-0.3375,-0.3379,-0.3391,-0.3396,-0.3402,-0.3385,-0.3385,-0.3385,0,-0.3528,-0.3518,-0.351,-0.3492,-0.3488,-0.3484,-0.3472,-0.3464,-0.3451,-0.3444,-0.3436,-0.3425,-0.3418,-0.3411,-0.3401,-0.34,-0.3395,-0.3389,-0.3389,-0.3388,-0.3381,-0.339,-0.3403,-0.3404,-0.3386,-0.3386,-0.3386,0,-0.3545,-0.3529,-0.3522,-0.3515,-0.3495,-0.3492,-0.3483,-0.347,-0.3463,-0.3453,-0.3448,-0.3437,-0.3431,-0.3422,-0.3409,-0.3405,-0.34,-0.3393,-0.3394,-0.3395,-0.3394,-0.3395,-0.3407,-0.3391,-0.3391,-0.3391,-0.3391,0,-0.3555,-0.3551,-0.3529,-0.3525,-0.3519,-0.3503,-0.3498,-0.3489,-0.3476,-0.347,-0.3456,-0.3451,-0.3433,-0.3425,-0.3415,-0.3408,-0.3406,-0.34,-0.3397,-0.3401,-0.3402,-0.3398,-0.3397,-0.3391,-0.3391,-0.3391,-0.3391,0,-0.3573,-0.3558,-0.3549,-0.353,-0.3525,-0.3522,-0.3506,-0.3501,-0.349,-0.3482,-0.348,-0.3463,-0.3453,-0.3438,-0.3424,-0.3417,-0.3412,-0.3408,-0.3416,-0.3415,-0.3417,-0.3417,-0.3428,-0.3428,-0.3412,-0.3412,-0.3412,0,-0.358,-0.3577,-0.3557,-0.3551,-0.3543,-0.3534,-0.3527,-0.3511,-0.3505,-0.3489,-0.3486,-0.3475,-0.3465,-0.345,-0.3437,-0.3426,-0.3421,-0.3425,-0.3419,-0.3423,-0.3421,-0.3422,-0.3421,-0.3427,-0.3427,-0.3428,-0.3428,0,-0.3595,-0.3587,-0.3578,-0.3565,-0.3557,-0.3547,-0.3536,-0.3532,-0.3514,-0.3507,-0.3496,-0.3489,-0.3474,-0.3463,-0.345,-0.3441,-0.3432,-0.343,-0.3429,-0.3434,-0.3439,-0.3436,-0.342,-0.343,-0.3429,-0.3429,-0.3429,-0.3429,-0.3608,-0.3604,-0.3589,-0.3578,-0.3568,-0.3558,-0.3552,-0.354,-0.3531,-0.3517,-0.3509,-0.3498,-0.3485,-0.3466,-0.3458,-0.345,-0.3446,-0.3446,-0.3446,-0.3446,-0.3447,-0.344,-0.3447,-0.3447,-0.3447,-0.3447,-0.3447,0,-0.3622,-0.3611,-0.3602,-0.3586,-0.3578,-0.3569,-0.3556,-0.3549,-0.3541,-0.3528,-0.3519,-0.3507,-0.3496,-0.3481,-0.3469,-0.3466,-0.3461,-0.3463,-0.3463,-0.3461,-0.3452,-0.3453,-0.3467,-0.3467,-0.3467,-0.3467,-0.3467,-0.3467,-0.3628,-0.362,-0.3611,-0.3598,-0.3587,-0.3577,-0.357,-0.3561,-0.3551,-0.3538,-0.3528,-0.3519,-0.3505,-0.3492,-0.3482,-0.3478,-0.3474,-0.3478,-0.3473,-0.3464,-0.3462,-0.346,-0.3462,-0.3477,-0.3477,-0.3483,-0.3483,-0.3483]},{"header":{"parameterUnit":"m.s-1","parameterCategory":1,"la1":30.2991,"la2":30.254,"lo1":-89.0895,"lo2":-89.0444,"dy":0.0017,"dx":0.0017,"nx":28,"ny":28,"refTime":"2023-10-18T09:00:00:Z","depth":0,"parameterNumber":3,"parameterNumberName":"V-component_of_WINDS"},"data":[0,0,0,0,0,0,0,0,0,0,0,0,0,0,0,0,0,0,0,0,0,0,0,0,0,0,0,0,0,0,0,0,0,0,0,0,0,0,0,0,0,0,0,0,0,0,0,0,0,0,0,0,0,0,0,0,0,0,1.5275,1.5275,0,1.5308,1.5308,1.5309,1.5339,1.5339,1.534,1.534,1.5372,1.5372,1.5373,0,0,0,0,0,0,0,0,0,0,0,0,0,1.5236,1.5237,1.5275,1.5275,1.5276,1.5308,1.5309,1.5309,1.5339,1.5339,1.534,1.534,1.5372,1.5372,1.5373,0,0,0,0,0,0,0,0,0,0,0,0,0,1.5259,1.5237,1.5275,1.5295,1.5297,1.5308,1.5309,1.5309,1.5339,1.5339,1.534,1.5341,1.5372,1.5372,1.5373,1.5367,0,0,1.5375,1.5376,0,0,0,0,0,0,0,0,1.5258,1.5261,1.5291,1.5293,1.5296,1.532,1.5307,1.5328,1.5339,1.5323,1.534,1.5341,1.5354,1.5356,1.5361,1.5368,1.5369,1.5375,1.5376,1.5376,1.5376,0,0,0,0,0,0,0,1.5256,1.5259,1.5288,1.5292,1.5294,1.5301,1.5305,1.5311,1.5335,1.5324,1.5327,1.533,1.5355,1.536,1.5362,1.537,1.5375,1.5376,1.5377,1.5377,1.5374,1.5374,0,0,0,0,0,0,1.5252,1.5258,1.5287,1.5289,1.5278,1.5302,1.5306,1.5312,1.5335,1.5339,1.533,1.5331,1.5359,1.5361,1.5363,1.5358,1.5376,1.5377,1.5377,1.5375,1.5374,1.5374,0,0,0,0,0,0,1.5251,1.5254,1.5286,1.5274,1.5279,1.5302,1.5308,1.5312,1.5317,1.5339,1.5343,1.5331,1.5359,1.5362,1.5366,1.536,1.5377,1.5378,1.5376,1.5375,1.5374,1.5347,0,0,0,0,0,0,1.525,1.5254,1.5252,1.5274,1.5279,1.5288,1.5307,1.5312,1.5319,1.5321,1.5341,1.5345,1.536,1.5365,1.5367,1.5361,1.5378,1.5376,1.5375,1.5374,1.5348,1.5345,1.5343,0,0,0,0,0,1.5248,1.5242,1.5251,1.5255,1.5277,1.5287,1.529,1.5309,1.5318,1.5316,1.533,1.5344,1.536,1.5365,1.5367,1.5362,1.5377,1.5375,1.5374,1.535,1.5346,1.5343,0,0,0,0,0,0,1.5217,1.5245,1.5256,1.5257,1.527,1.5292,1.529,1.5304,1.5314,1.5316,1.5338,1.5342,1.5343,1.5353,1.5358,1.5357,1.537,1.537,1.5351,1.5347,1.5344,1.5342,1.5379,0,0,0,0,0,1.521,1.5217,1.5241,1.5239,1.5245,1.5267,1.5272,1.5285,1.5299,1.5304,1.5319,1.5331,1.5339,1.5344,1.5352,1.535,1.5355,1.5348,1.5345,1.5342,1.5341,1.5342,1.5339,1.537,1.537,1.537,0,0,1.5196,1.5212,1.5215,1.5233,1.5245,1.5251,1.5271,1.5276,1.5281,1.5305,1.531,1.5321,1.5336,1.5337,1.5338,1.5345,1.5334,1.5341,1.5339,1.5339,1.534,1.5337,1.5335,1.5369,1.5369,1.5369,0,0,1.5174,1.5186,1.5187,1.5199,1.5217,1.5231,1.5231,1.5253,1.5261,1.5267,1.5285,1.5291,1.5304,1.5315,1.5322,1.5305,1.5318,1.5307,1.5292,1.5292,1.529,1.5288,1.5282,1.528,1.5306,1.5306,1.5306,0,1.5153,1.5164,1.5185,1.519,1.5198,1.5221,1.5222,1.5232,1.5251,1.5256,1.5264,1.5282,1.5294,1.5298,1.5294,1.5299,1.53,1.5305,1.5288,1.5287,1.5285,1.528,1.5278,1.5305,1.5305,1.5305,1.5305,0,1.5139,1.5146,1.5144,1.5164,1.5171,1.5174,1.5195,1.52,1.5213,1.5227,1.5233,1.5248,1.5261,1.5263,1.5275,1.5269,1.5273,1.5284,1.5298,1.528,1.5276,1.5274,1.5303,1.5303,1.5304,1.5304,0,0,1.5096,1.5129,1.5128,1.5137,1.516,1.5165,1.5169,1.5183,1.5187,1.52,1.5203,1.5215,1.5226,1.5234,1.5248,1.5248,1.5235,1.526,1.526,1.5255,1.523,1.5221,1.5219,1.5244,1.5244,1.5244,1.5229,0,1.5077,1.5086,1.5107,1.5109,1.5116,1.514,1.5143,1.5157,1.5171,1.5178,1.5193,1.5201,1.5215,1.522,1.5221,1.5236,1.523,1.5237,1.5248,1.5248,1.5243,1.5216,1.5207,1.5192,1.5227,1.5227,1.5227,0,1.5056,1.5069,1.5073,1.5096,1.51,1.5103,1.5117,1.5125,1.5141,1.5151,1.5161,1.5176,1.5182,1.5195,1.5203,1.5207,1.5213,1.5221,1.5221,1.5222,1.5236,1.5217,1.5188,1.5186,1.5224,1.5224,1.5225,0,1.5025,1.5043,1.5048,1.5056,1.5083,1.5085,1.5096,1.5113,1.512,1.5133,1.5138,1.5151,1.5157,1.5167,1.5186,1.5193,1.5192,1.5206,1.52,1.5199,1.5198,1.5198,1.5169,1.5201,1.5202,1.5202,1.5202,0,1.5002,1.5003,1.5035,1.5038,1.5041,1.5064,1.5066,1.5079,1.5094,1.51,1.5121,1.5126,1.5151,1.5159,1.5173,1.5178,1.5181,1.5189,1.5193,1.5187,1.5186,1.5191,1.5192,1.5201,1.5201,1.5201,1.5201,0,1.4967,1.4988,1.4995,1.5021,1.5028,1.5029,1.5051,1.5054,1.507,1.5077,1.508,1.5104,1.5114,1.5134,1.515,1.516,1.5161,1.5168,1.5156,1.5158,1.5151,1.5152,1.5125,1.5123,1.5156,1.5156,1.5155,0,1.4951,1.4953,1.4979,1.4985,1.4996,1.5005,1.5014,1.5037,1.5044,1.5064,1.5066,1.5078,1.5089,1.5105,1.5123,1.5136,1.5143,1.5133,1.5145,1.5139,1.5143,1.5143,1.5143,1.513,1.5129,1.5129,1.5128,0,1.4919,1.493,1.4942,1.4957,1.4966,1.4979,1.4993,1.4997,1.5023,1.5031,1.5042,1.5051,1.5068,1.508,1.5096,1.5107,1.5122,1.5125,1.5124,1.5118,1.5111,1.5115,1.5149,1.5125,1.5125,1.5125,1.5126,1.5126,1.4894,1.4897,1.4917,1.4929,1.4942,1.4955,1.496,1.4977,1.4988,1.5004,1.5017,1.5028,1.5046,1.5068,1.5079,1.5087,1.5094,1.5093,1.5093,1.5092,1.509,1.511,1.509,1.509,1.509,1.509,1.509,0,1.4864,1.4878,1.4889,1.4909,1.4919,1.4934,1.495,1.4957,1.4967,1.4982,1.4994,1.5007,1.502,1.504,1.5054,1.5057,1.5064,1.5059,1.5059,1.5062,1.5083,1.5082,1.5053,1.5053,1.5053,1.5053,1.5053,1.5053,1.4849,1.4856,1.487,1.4884,1.4898,1.491,1.4918,1.493,1.4943,1.4958,1.4969,1.4982,1.4999,1.5015,1.5027,1.5033,1.5037,1.503,1.5038,1.5057,1.506,1.5063,1.5063,1.5031,1.5031,1.5016,1.5016,1.5016]}]]